Location: Lane
(33.5226°N, 79.8788°W)
Time: 09:52:25
(UTC+00:00)

Altair - Pass Details

Date: 07 October 2022
Orbit: 1501 x 1682 km, 47.2° (Epoch: 30 November)

Event Time Altitude Azimuth Distance (km) Brightness Sun altitude
Rises 08:41:39 0° 235° (SW) 4,694 - -33.1°
Reaches altitude 10° 08:44:40 10° 237° (WSW) 3,734 - -32.5°
Exits shadow 08:52:17 63° 252° (WSW) 1,748 7.4 -31.0°
Maximum altitude 08:54:11 81° 324° (NW) 1,619 7.4 -30.6°
Drops below altitude 10° 09:04:09 10° 53° (NE) 3,888 10.4 -28.6°
Sets 09:07:21 0° 54° (NE) 4,896 11.2 -27.9°
